Location: Newark
(37.9800°N, 91.3000°W)
Time: 08:24:42
(UTC+00:00)

NOAA 19 - Pass Details

Date: 06 December 2019
Orbit: 840 x 862 km, 99.2° (Epoch: 27 January)

Event Time Altitude Azimuth Distance (km) Brightness Sun altitude
Rises 23:40:45 0° 190° (S) 3,410 8.8 -10.8°
Reaches altitude 10° 23:43:21 10° 200° (SSW) 2,481 8.2 -11.2°
Maximum altitude 23:48:15 33° 263° (W) 1,416 7.2 -12.1°
Drops below altitude 10° 23:53:13 10° 326° (NW) 2,504 7.9 -13.1°
Sets 23:55:51 0° 336° (NNW) 3,447 8.5 -13.6°
